[Iaude] MPEC J73: 2024 JP1 [a=1.70,e=0.38,i=2.4,H=25.8]

mpec at cfa.harvard.edu mpec at cfa.harvard.edu
Sun May 5 02:18:05 EDT 2024


M.P.E.C. 2024-J73                                   Issued 2024 May 5, 06:16 UT

     The Minor Planet Electronic Circulars contain information on unusual
         minor planets, routine data on comets and natural satellites,
         and occasional editorial announcements.  They are published
    on behalf of Division F of the International Astronomical Union by the
          Minor Planet Center, Smithsonian Astrophysical Observatory,
                          Cambridge, MA 02138, U.S.A.
			  
             Prepared using the Tamkin Foundation Computer Network

                              MPC at CFA.HARVARD.EDU
            URL https://www.minorplanetcenter.net/    ISSN 1523-6714

                                    2024 JP1                                    


Observations:
     K24J01P  C2024 05 03.33417 13 21 13.38 +10 58 35.7                VEJ073V00
     K24J01P  C2024 05 03.35288 13 21 15.36 +10 58 27.2          22.1 GVEJ073V00
     K24J01P* C2024 05 03.38228213 21 18.590+10 58 12.65         22.47GVEJ073V00
     K24J01P  C2024 05 03.38988413 21 19.458+10 58 09.19         22.21GVEJ073V00
     K24J01P  C2024 05 03.39648313 21 20.228+10 58 05.99         21.82GVEJ073V00
     K24J01P  C2024 05 03.40209013 21 20.848+10 58 03.25         21.89GVEJ073V00
     K24J01P KC2024 05 03.43132 13 21 24.28 +10 57 47.0          21.0 RVEJ073291
     K24J01P KC2024 05 03.44000 13 21 25.39 +10 57 43.9                VEJ073291
     K24J01P KC2024 05 04.22444 13 23 20.43 +10 51 54.9          21.6 RVEJ073291
     K24J01P KC2024 05 04.23322 13 23 21.39 +10 51 50.4          21.6 RVEJ073291
     K24J01P KC2024 05 04.24198 13 23 22.36 +10 51 46.4          21.8 RVEJ073291
     K24J01P KC2024 05 05.22789 13 25 49.84 +10 42 56.0          22.3 RVEJ073291
     K24J01P KC2024 05 05.23688 13 25 50.91 +10 42 50.9          21.6 RVEJ073291
     K24J01P KC2024 05 05.24583 13 25 51.86 +10 42 46.8                VEJ073291

Observer details:
291 LPL/Spacewatch II.  Observers T. H. Bressi, M. T. Read.  1.8-m f/2.7
    reflector + CCD.
V00 Kitt Peak-Bok.  Observer R. A. Mastaler.  Measurers B. Gray, D. Rankin, F.
    C. Shelly, M. J. Brucker, C. E. Woodward, T. Beuden, V. F. Carvajal, D.
    Fay, J. B. Fazekas, D. C. Fuls, A. R. Gibbs, H. Groeller, J. K. Hogan, R.
    A. Kowalski, S. M. Larson, C. Lejoly, G. J. Leonard, R. A. Mastaler, R. S.
    McMillan, R. L. Seaman, K. W. Wierzchos.  2.25-m reflector + mosaic CCD,
    2.25-m reflector + 4x4K mosaic CCD.

Orbital elements:
2024 JP1                                                 Earth MOID = 0.0476 AU
Epoch 2024 Mar. 31.0 TT = JDT 2460400.5                 MPC                     
M 334.05775              (2000.0)            P               Q                  
n   0.44343072     Peri.  164.00649     -0.39285722     +0.91868179             
a   1.7031473      Node    82.84651     -0.84818797     -0.34473169             
e   0.3775087      Incl.    2.37243     -0.35530320     -0.19283108             
P   2.22           H   25.80          G   0.15           U   9                  
Residuals in seconds of arc
240503 V00  0.3+  0.1+    240503 V00  0.2-  0.1+    240504 291  0.0   0.1+
240503 V00  0.0   0.3+    240503 291  0.6-  1.6-    240505 291  0.7+  0.5-
240503 V00  0.1-  0.2-    240503 291  0.2+  0.3-    240505 291  0.5+  0.5-
240503 V00  0.0   0.0     240504 291  0.1+  0.1+    240505 291  1.3-  0.6+
240503 V00  0.2+  0.1+    240504 291  0.1-  0.2-

Ephemeris:
2024 JP1                 a,e,i = 1.70, 0.38, 2                   q = 1.0602
Date    TT    R. A. (2000) Decl.     Delta      r    Elong.  Phase     V
2024 04 05    12 56 29.5 +08 53 13   0.1922  1.1872   165.1    12.5    23.3
...
2024 04 20    13 02 41.6 +10 58 33   0.1367  1.1295   154.4    22.6    22.8
...
2024 04 28    13 11 26.4 +11 18 31   0.1123  1.1046   149.1    27.9    22.5
...
2024 05 04    13 22 47.5 +10 54 16   0.09571 1.0893   146.3    30.9    22.2
2024 05 05    13 25 14.0 +10 45 42   0.09308 1.0870   146.0    31.3    22.2
2024 05 06    13 27 51.8 +10 35 33   0.09050 1.0848   145.7    31.6    22.1
...
2024 05 12    13 48 25.2 +08 54 16   0.07590 1.0735   145.4    32.3    21.7
...
2024 05 20    14 33 40.0 +04 03 31   0.05949 1.0637   149.9    28.5    21.1
...
2024 06 04    17 10 52.3 -14 45 21   0.04831 1.0622   170.7     8.9    20.0

A. U. Tomatic                (C) Copyright 2024 MPC           M.P.E.C. 2024-J73





More information about the Iaude mailing list